Location: Gälforsberget
(66.6500°N, 22.4167°E)
Time: 07:31:28
(UTC+00:00)

Cosmos 2297 - Pass Details

Date: 11 April 2026
Orbit: 833 x 859 km, 71.0° (Epoch: 13 May)

Event Time Altitude Azimuth Distance (km) Brightness Sun altitude
Rises 20:43:33 0° 312° (NW) 3,442 8.3 -12.3°
Reaches altitude 10° 20:46:03 10° 308° (NW) 2,505 7.3 -12.4°
Maximum altitude 20:51:37 53° 233° (SW) 1,050 4.1 -12.6°
Enters shadow 20:55:49 18° 163° (SSE) 2,004 5.0 -12.8°
